This demonstration page uses our WeatherBlox Daily Observations layout. Learn more.

Left ArrowRight Arrow

Hourly Observations for February 16, 2019

Temp ( °F °C ) Dew Point ( °F °C ) Humidity (%) Winds ( mph kmh ) Pressure ( in mb ) Visibility ( mi km ) Precip ( " mm )
12:52 am 00:52 Mostly Cloudy 11 -11.7 5 -15 77 77 N 5 7 30.22 1023 10 16 0.00 0.00
1:52 am 01:52 Partly Cloudy 10 -12.2 5 -15 80 80 NNW 3 6 30.22 1023 10 16 0.00 0.00
2:52 am 02:52 Clear 6 -14.4 3 -16.1 87 87 N 6 9 30.19 1022 10 16 0.00 0.00
3:52 am 03:52 Clear 7 -13.9 4 -15.6 87 87 N 5 7 30.16 1022 10 16 0.00 0.00
4:52 am 04:52 Clear 2 -16.7 -2 -18.9 83 83 N 6 9 30.16 1021 10 16 0.00 0.00
5:52 am 05:52 Partly Cloudy 2 -16.7 -1 -18.3 88 88 NNE 3 6 30.16 1021 10 16 0.00 0.00
6:52 am 06:52 Mostly Clear 4 -15.6 0 -17.8 83 83 W 3 6 30.17 1022 10 16 0.00 0.00
7:52 am 07:52 Mostly Sunny 2 -16.7 -3 -19.4 80 80 N 5 7 30.15 1021 10 16 0.00 0.00
8:52 am 08:52 Mostly Sunny 8 -13.3 3 -16.1 80 80 Calm 30.14 1021 10 16 0.00 0.00
9:52 am 09:52 Mostly Sunny 10 -12.2 4 -15.6 76 76 WNW 3 6 30.12 1020 10 16 0.00 0.00
10:52 am 10:52 Mostly Cloudy 12 -11.1 3 -16.1 67 67 SSE 3 6 30.10 1019 10 16 0.00 0.00
11:52 am 11:52 Mostly Cloudy 17 -8.3 5 -15 59 59 NNE 3 6 30.07 1018 10 16 0.00 0.00
12:52 pm 12:52 Mostly Cloudy 18 -7.8 6 -14.4 59 59 E 5 7 30.03 1017 10 16 0.00 0.00
1:52 pm 13:52 Mostly Cloudy 19 -7.2 7 -13.9 59 59 E 9 15 29.97 1015 10 16 0.00 0.00
2:52 pm 14:52 Mostly Cloudy 20 -6.7 7 -13.9 57 57 E 8 13 29.95 1014 10 16 0.00 0.00
3:52 pm 15:52 Mostly Cloudy 20 -6.7 9 -12.8 62 62 E 10 17 29.93 1014 10 16 0.00 0.00
4:52 pm 16:52 Cloudy 20 -6.7 8 -13.3 60 60 E 9 15 29.92 1013 10 16 0.00 0.00
5:52 pm 17:52 Cloudy 20 -6.7 9 -12.8 62 62 E 7 11 29.91 1013 10 16 0.00 0.00
6:52 pm 18:52 Cloudy 20 -6.7 9 -12.8 62 62 VRB 3 6 29.91 1013 10 16 0.00 0.00
7:06 pm 19:06 Cloudy with Light Snow 20 -6.7 10 -12.2 65 65 NE 7 11 29.93 1014 2 3 0.00 0.03
7:43 pm 19:43 Mostly Cloudy with Light Snow 19 -7.2 14 -10 81 81 NE 7 11 29.94 1014 1 2 0.01 0.25
7:52 pm 19:52 Mostly Cloudy with Light Snow 19 -7.2 14 -10 81 81 NNE 7 11 29.91 1013 1 2 0.03 0.76
7:59 pm 19:59 Mostly Cloudy with Light Snow 19 -7.2 15 -9.4 84 84 NNE 6 9 29.94 1014 1 1 0.00 0.03
8:52 pm 20:52 Mostly Cloudy with Snow 18 -7.8 14 -10 84 84 NNE 8 13 29.90 1012 1 1 0.09 2.29
8:54 pm 20:54 Mostly Cloudy with Snow 18 -7.8 14 -10 84 84 NNE 7 11 29.94 1014 0 0 0.00 0.03
9:01 pm 21:01 Mostly Cloudy with Snow 18 -7.8 14 -10 84 84 NNE 8 13 29.93 1013 1 1 0.01 0.25
9:18 pm 21:18 Mostly Cloudy with Light Snow 18 -7.8 14 -10 84 84 NNE 5 7 29.93 1013 1 2 0.06 1.52
9:37 pm 21:37 Mostly Cloudy with Snow 19 -7.2 14 -10 81 81 NE 7 11 29.92 1013 1 1 0.07 1.78
9:50 pm 21:50 Mostly Cloudy with Snow 18 -8 14 -10 86 86 NNW 6 9 29.94 1014 1 1 0.08 2.03
9:52 pm 21:52 Mostly Cloudy with Snow 18 -7.8 14 -10 84 84 NNW 5 7 29.90 1012 1 1 0.08 2.03
10:52 pm 22:52 Mostly Cloudy with Snow 18 -7.8 14 -10 84 84 N 7 11 29.88 1012 1 1 0.09 2.29
10:58 pm 22:58 Mostly Cloudy with Snow 18 -7.8 14 -10 84 84 NNE 7 11 29.93 1013 1 2 0.00 0.03
11:26 pm 23:26 Mostly Cloudy with Light Snow 19 -7.2 14 -10 81 81 NNE 7 11 29.91 1013 1 1 0.02 0.51
11:40 pm 23:40 Mostly Cloudy with Snow 19 -7.2 14 -10 81 81 N 6 9 29.90 1013 1 1 0.03 0.76
11:52 pm 23:52 Mostly Cloudy with Light Snow 19 -7.2 14 -10 81 81 N 6 9 29.86 1011 1 1 0.05 1.27

Powered by AerisWeather